STARLINK-35680

Last updated on Wed Dec 31 2025 00:02:06 GMT+0000 (Coordinated Universal Time)

1 66610U 25270Y 25364.57873911 .00096073 00000+0 22700-2 0 9993 2 66610 42.9997 89.2982 0003202 256.9580 103.0919 15.40807117 7218
UTC large
Height (km)
Speed (km/s)
/
Latitude / Longitude
Inclination (degrees)
Orbital Period (minutes)
Azimuth
Elevation
Range (km)
Doppler Factor

Next 0 passes for location: London (51.5072 / 0.1276)

Sorry there are no passes over London.